Torna al catalogo

COSMOS 1638

AttivoMilitareLEO
NORAD 15620·PAYLOAD·🇷🇺 Russia

Lanciato Mar 21, 1985 da Plesetsk Cosmodrome

Loading…

Prossimi Passaggi (prossime 24 ore)

TLE

AggiornatoSource: Space-Track

Epoca: Sep 14, 2026, 19:50 UTC

1 15620U 85023D   26257.82699362 -.00000019  00000-0 -21740-4 0  9999
2 15620  74.0527 277.6813 0015339  25.3176 146.9229 12.49215788891929

Traccia COSMOS 1638 in tempo reale con AllMySat

Download on the App Store